SL-16 DEB, 22339

Orbit data source: Space-Track

SL-16 DEB, 22339 is space debris in LEO originally from a launch on Fri, 25 Dec 1992 UTC launched from the Tyuratam Missile And Space Complex (TTMTR). Debris objects in space refer to the collection of defunct objects orbiting the Earth. Examples of debris include non-operational satellites, rocket bodies, and fragments generated from explosions, collisions, or faulty payload assembly.

Loading next visibility...
Identifier
22339, 1992-093AC
Orbit
LEO
Country
Flag of CISCIS
Related business
Manufacturer
Unknown
Mission
Spacecraft
Bus & Motor
Unknown
Mass
Unknown
Launch date (UTC)
1992-12-25 (33 years ago)
Launch vehicle
Unknown
Launch site
Tyuratam Missile And Space Complex (TTMTR)
Object type
Payload
Rocket body
Debris
Shape & HBR
Unknown shape, 0.3 m
Radar Cross Section
Medium (>0.1 m² and <1 m²)

Expand to show TLE details & history
Last TLE update: 13 hours ago

TLE from 13 hours ago
0 SL-16 DEB
1 22339U 92093AC  26126.77226311  .00000212  00000-0  85204-4 0  9996
2 22339  70.8107 259.7338 0126783 227.0115 132.0336 14.35334914724138
Epoch: 2026-05-06T18:32Z
TLE epoch observation values (Epoch: 2026-05-06T18:32:03.532Z)
Latitude
-0.0001°
Longitude
117.09109°
Altitude
837.713 km
Speed
7.402 km/s
True Right ascension
17h 18m 56s
True Declination
0° 00' 00"
Sunlit
Object was in full shadow at epoch
Visualization orbit readout
Latitude
Unknown
Longitude
Unknown
Altitude
Unknown
Speed
Unknown
Apparent Right ascension
Unknown
Apparent Declination
Unknown
Sunlit
N/A
Visualization observer readout
Local Sidereal Time
15:26:06
Azimuth
Unknown
Elevation
Unknown
Doppler factor
Unknown
Orbital elements
Apogee altitude
862.527 km
Perigee altitude
681.227 km
Semi-major axis
7,150.014 km
Eccentricity
0.01268
Inclination
70.8107°
RAAN
259.7338°
Arg. of periapsis
227.0115°
True anomaly
133.10129°
Mean anomaly
132.0336°
Eccentric anomaly
132.56858°
Mean motion
3.5899 °/min
Orbital period
100.28 mins
BSTAR
0.000085204
Loading maneuver chart data...
Computing Atmospheric mass density...
Loading historical data...
Loading historical data...
Loading historical data...
Loading historical data...
Loading historical data...
Loading historical data...
Loading historical data...

Documentation

Showing up to 5 results
|